Flag for Netherlands Weather past 2 weeks in Eindhoven, Netherlands

Now
46 °F

Drizzle. Mostly cloudy.


Feels Like: 40 °F
Forecast: 47 / 53 °F
Wind: 16 mph from Southwest

Location: Eindhoven Airport

Current Time: Dec 21, 2014 at 7:45:21 PM

Latest Report: Dec 21, 2014 at 7:02 PM


Visibility: 4 mi

Pressure: 30.24 "Hg

Humidity: 93%

Dew point: 45 °F

Location of EindhovenLocation

Historic Weather in Eindhoven — Graph

°F

Eindhoven temperature yesterday

Maximum temperature yesterday: 48 °F (at 1:55 PM)
Minimum temperature yesterday: 39 °F (at 12:55 AM)
Average temperature yesterday: 43 °F

Past Weeks' High & Low Weather Summary

 TemperatureHumidityPressure
High55 °F (Dec 18, 2:55 PM)100% (Dec 6, 10:00 PM)30.39 "Hg (Dec 6, 10:00 PM)
Low30 °F (Dec 7, 1:25 AM)66% (Dec 20, 2:55 PM)29.36 "Hg (Dec 12, 11:55 AM)
Average42 °F90%29.94 "Hg
* Reported Dec 6 6:25 PM — Dec 21 6:55 PM, Eindhoven, Weather by CustomWeather, © 2014

Note: Actual official high and low records may vary slightly from our data, if they occured in-between our weather recording intervals... More about our weather records

Advertising

Eindhoven weather history for previous 24 hours

 ConditionsComfort  
Time TempWeatherWind HumidityBarometerVisibility
6:55 PM
Dec 21
46 °FDrizzle. Mostly cloudy.13 mph93%30.24 "Hg4 mi
6:25 PM46 °FLight rain. Mostly cloudy.15 mph93%30.24 "Hg2 mi
5:55 PM46 °FPassing clouds.14 mph93%30.24 "Hg2 mi
5:25 PM46 °FDrizzle. Overcast.12 mph93%30.24 "Hg2 mi
4:55 PM46 °FDrizzle. Overcast.13 mph93%30.24 "Hg2 mi
4:25 PM46 °FBroken clouds.14 mph93%30.27 "HgN/A
3:55 PM45 °FDrizzle. Broken clouds.15 mph100%30.27 "Hg3 mi
3:25 PM45 °FBroken clouds.15 mph93%30.27 "HgN/A
2:55 PM45 °FDrizzle. Mostly cloudy.15 mph93%30.27 "Hg3 mi
2:25 PM45 °FLight rain. More clouds than sun.15 mph93%30.30 "Hg4 mi
1:55 PM45 °FOvercast.16 mph87%30.30 "HgN/A
1:25 PM45 °FPartly sunny.14 mph87%30.30 "HgN/A
12:55 PM45 °FOvercast.17 mph87%30.33 "HgN/A
12:25 PM45 °FOvercast.13 mph87%30.33 "HgN/A
11:55 AM45 °FOvercast.16 mph81%30.33 "HgN/A
11:25 AM43 °FMostly cloudy.14 mph87%30.36 "HgN/A
10:55 AM43 °FPartly sunny.14 mph87%30.36 "HgN/A
10:25 AM41 °FOvercast.14 mph93%30.36 "HgN/A
9:55 AM41 °FOvercast.14 mph93%30.39 "HgN/A
9:25 AM41 °FMore clouds than sun.12 mph93%30.39 "HgN/A
8:55 AM39 °FPassing clouds.12 mph93%30.39 "HgN/A
8:25 AM39 °FOvercast.10 mph93%30.36 "HgN/A
7:55 AM39 °FPassing clouds.10 mph93%30.39 "HgN/A
7:25 AM39 °FPassing clouds.10 mph93%30.39 "HgN/A
6:55 AM39 °FPassing clouds.9 mph93%30.39 "HgN/A
6:25 AM37 °FPassing clouds.9 mph100%30.39 "HgN/A
5:55 AM39 °FOvercast.10 mph93%30.39 "HgN/A
5:25 AM39 °FOvercast.10 mph93%30.39 "HgN/A
4:55 AM39 °FPassing clouds.9 mph93%30.39 "HgN/A
4:25 AM39 °FOvercast.9 mph93%30.39 "HgN/A
3:55 AM39 °FOvercast.8 mph93%30.39 "HgN/A
3:25 AM39 °FOvercast.8 mph93%30.39 "HgN/A
2:55 AM39 °FOvercast.7 mph93%30.39 "HgN/A
2:25 AM41 °FOvercast.7 mph93%30.39 "HgN/A
1:55 AM41 °FPassing clouds.7 mph93%30.36 "HgN/A
1:25 AM43 °FOvercast.7 mph87%30.36 "HgN/A
12:55 AM43 °FMostly cloudy.8 mph87%30.36 "HgN/A
12:25 AM43 °FPartly cloudy.8 mph87%30.36 "HgN/A
11:55 PM
Dec 20
45 °FPartly cloudy.9 mph76%30.36 "HgN/A
11:25 PM43 °FPartly cloudy.8 mph87%30.33 "HgN/A
10:55 PM43 °FPartly cloudy.3 mph87%30.33 "HgN/A
10:25 PM43 °FOvercast.7 mph87%30.30 "HgN/A
9:55 PM43 °FPassing clouds.6 mph87%30.30 "HgN/A
9:25 PM43 °FPartly cloudy.5 mph87%30.30 "HgN/A
8:55 PM45 °FPartly cloudy.9 mph81%30.27 "HgN/A
8:25 PM43 °FPassing clouds.10 mph81%30.27 "HgN/A
7:55 PM43 °FPassing clouds.8 mph87%30.24 "HgN/A
7:25 PM43 °FPartly cloudy.8 mph87%30.24 "HgN/A
Weather by CustomWeather, © 2014

See weather overviewHow to use our weather pages